Flag for Russia Weather past 2 weeks in Bryansk, Russia

Now
86 °F

Sunny.


Feels Like: 84 °F
Forecast: 63 / 96 °F
Wind: 3 mph from Southeast

Location: Brjansk

Current Time: Aug 1, 2014 at 12:26:08 PM

Latest Report: Aug 1, 2014 at 11:00 AM


Visibility: 10 mi

Pressure: 30.04 "Hg

Humidity: 29%

Dew point: 50 °F

Location of BryanskLocation

Historic Weather in Bryansk — Graph

°F

Bryansk temperature yesterday

Maximum temperature yesterday: 91 °F (at 5:00 PM)
Minimum temperature yesterday: 73 °F (at 9:00 AM)
Average temperature yesterday: 84 °F

Past Weeks' High & Low Weather Summary

 TemperatureHumidityPressure
High91 °F (Jul 31, 5:00 PM)100% (Jul 21, 8:30 AM)30.21 "Hg (Jul 21, 8:30 AM)
Low54 °F (Jul 26, 6:00 AM)23% (Jul 31, 5:00 PM)29.83 "Hg (Jul 21, 5:00 PM)
Average75 °F53%30.03 "Hg
* Reported Jul 17 11:00 AM — Aug 1 11:00 AM, Bryansk, Weather by CustomWeather, © 2014

Note: Actual official high and low records may vary slightly from our data, if they occured in-between our weather recording intervals... More about our weather records

Advertising

Bryansk weather history for previous 24 hours

 ConditionsComfort  
Time TempWeatherWind HumidityBarometerVisibility
11:00 AM
Aug 1
86 °FSunny.3 mph29%30.04 "Hg10 mi
10:00 AM81 °FSunny.3 mph45%30.01 "Hg10 mi
9:00 AM79 °FSunny.3 mph45%30.01 "Hg10 mi
8:00 AM70 °FSunny.1 mph60%30.01 "Hg10 mi
7:00 AM64 °FSunny.No wind68%30.01 "Hg10 mi
6:00 AM63 °FClear.3 mph68%30.01 "Hg10 mi
5:00 AM61 °FClear.1 mph72%30.01 "Hg10 mi
12:00 AM70 °FClear.1 mph57%29.98 "Hg10 mi
11:00 PM
Jul 31
73 °FClear.No wind47%29.98 "Hg10 mi
10:00 PM73 °FSunny.No wind50%29.98 "Hg10 mi
9:00 PM82 °FSunny.3 mph35%29.98 "Hg10 mi
8:30 PM84 °FSunny.3 mph31%29.98 "Hg10 mi
8:00 PM86 °FSunny.3 mph27%29.98 "Hg10 mi
7:00 PM88 °FSunny.6 mph25%29.98 "Hg10 mi
6:00 PM91 °FPassing clouds.6 mph23%29.98 "HgN/A
5:00 PM91 °FSunny.8 mph23%29.98 "Hg10 mi
4:00 PM90 °FPassing clouds.3 mph24%30.01 "HgN/A
2:00 PM90 °FSunny.3 mph27%30.04 "Hg10 mi
1:00 PM88 °FPassing clouds.8 mph29%30.04 "HgN/A
12:00 PM86 °FPassing clouds.3 mph33%30.04 "HgN/A
Weather by CustomWeather, © 2014

See weather overviewHow to use our weather pages